DW8215 Weather Reports


Display with metric or nautical units.
time (UTC)temp
F
wind
direction
speed
MPH
gust
MPH
rain 1hr
in
rain 24hr
in
rain mn
in
humidity
%
barometer
mb
20260510211519 45 259 2.0 6.0 0.00 0.00 0.00 55 1022.5
20260510210020 44 297 3.0 9.0 0.00 0.00 0.00 55 1022.4
20260510204526 44 330 5.0 11.0 0.00 0.00 0.00 53 1022.2
20260510203016 45 346 4.0 9.0 0.00 0.00 0.00 53 1022.1
20260510201514 45 266 4.0 9.0 0.00 0.00 0.00 53 1022.1
20260510200014 45 279 2.0 8.0 0.00 0.00 0.00 55 1022.0
20260510194512 44 285 3.0 8.0 0.00 0.00 0.00 55 1021.9
20260510193008 44 318 2.0 4.0 0.00 0.00 0.00 56 1021.8
20260510191509 44 279 3.0 8.0 0.00 0.00 0.00 53 1021.7
20260510190012 45 318 2.0 10.0 0.00 0.00 0.00 47 1021.2
20260510184502 46 173 2.0 7.0 0.00 0.00 0.00 46 1021.0
20260510183002 45 273 0.0 7.0 0.00 0.00 0.00 52 1020.8
20260510181601 45 277 2.0 9.0 0.00 0.00 0.00 52 1020.5
20260510180109 45 249 2.0 6.0 0.00 0.00 0.00 55 1020.5
20260510174553 45 28 1.0 6.0 0.00 0.00 0.00 61 1020.3
20260510173051 44 49 1.0 4.0 0.00 0.00 0.00 67 1020.1
20260510171550 44 355 0.0 11.0 0.00 0.00 0.00 59 1020.1
20260510170051 44 323 2.0 9.0 0.00 0.00 0.00 62 1020.1
20260510164554 44 186 2.0 8.0 0.00 0.00 0.00 61 1020.1
20260510163044 43 286 1.0 3.0 0.00 0.00 0.00 69 1020.1
20260510161542 42 346 0.0 5.0 0.00 0.00 0.00 66 1020.0
20260510160041 42 291 1.0 7.0 0.00 0.00 0.00 68 1019.7
20260510154549 43 231 2.0 5.0 0.00 0.00 0.00 69 1019.3
20260510153035 42 294 2.0 6.0 0.00 0.00 0.00 70 1019.3
20260510151535 42 360 0.0 5.0 0.00 0.00 0.00 72 1019.3
20260510150033 42 276 1.0 7.0 0.00 0.00 0.00 74 1019.2
20260510144533 41 250 0.0 4.0 0.00 0.00 0.00 76 1019.0
20260510143030 40 211 1.0 4.0 0.00 0.00 0.00 80 1018.8
20260510141529 39 312 1.0 4.0 0.00 0.00 0.00 81 1018.9
20260510140028 38 267 0.0 6.0 0.00 0.00 0.00 80 1018.8
20260510134527 38 286 2.0 4.0 0.00 0.00 0.00 79 1018.5
20260510133024 38 300 0.0 9.0 0.00 0.00 0.00 79 1018.3
20260510131535 39 294 1.0 3.0 0.00 0.00 0.00 80 1018.2
20260510130022 38 265 2.0 5.0 0.00 0.00 0.00 81 1018.0
20260510124520 38 314 0.0 3.0 0.00 0.00 0.00 81 1017.9
20260510123016 38 273 1.0 7.0 0.00 0.00 0.00 81 1017.5
20260510121515 38 259 1.0 5.0 0.00 0.00 0.00 81 1017.3
20260510120013 37 238 0.0 4.0 0.00 0.00 0.00 82 1017.0
20260510114512 37 235 0.0 3.0 0.00 0.00 0.00 83 1016.9
20260510113015 37 296 0.0 1.0 0.00 0.00 0.00 83 1016.7
20260510111508 37 254 1.0 4.0 0.00 0.00 0.00 83 1016.6
20260510110006 37 267 0.0 4.0 0.00 0.00 0.00 84 1016.3
20260510104504 37 223 1.0 4.0 0.00 0.00 0.00 84 1016.2
20260510103001 36 265 1.0 5.0 0.00 0.00 0.00 83 1015.9
20260510101603 36 300 1.0 7.0 0.00 0.00 0.00 83 1015.7
20260510100105 36 240 0.0 2.0 0.00 0.00 0.00 84 1015.3
20260510094556 36 257 1.0 3.0 0.00 0.00 0.00 84 1015.1
20260510093053 35 271 0.0 0.0 0.00 0.00 0.00 84 1014.9
20260510091551 36 267 0.0 3.0 0.00 0.00 0.00 82 1014.8
20260510090048 36 252 0.0 3.0 0.00 0.00 0.00 81 1014.6
20260510084545 37 267 0.0 4.0 0.00 0.00 0.00 80 1014.6
20260510083043 37 301 0.0 4.0 0.00 0.00 0.00 79 1014.5
20260510081540 37 232 0.0 3.0 0.00 0.00 0.00 79 1014.1
20260510080041 37 264 2.0 4.0 0.00 0.00 0.00 78 1014.0
20260510074541 38 241 1.0 3.0 0.00 0.00 0.00 76 1014.0
20260510073032 38 229 0.0 4.0 0.00 0.00 0.00 76 1013.9
20260510071529 38 219 1.0 7.0 0.00 0.00 0.00 75 1013.7
20260510070026 39 276 1.0 3.0 0.00 0.00 0.00 74 1013.7
20260510064539 39 249 0.0 4.0 0.00 0.00 0.00 74 1013.5
20260510063027 39 251 1.0 3.0 0.00 0.00 0.00 73 1013.4
20260510061523 39 243 1.0 5.0 0.00 0.00 0.00 73 1013.5
20260510060022 39 236 2.0 5.0 0.00 0.00 0.00 72 1013.5
20260510054522 39 250 0.0 3.0 0.00 0.00 0.00 72 1013.4
20260510053036 39 258 0.0 3.0 0.00 0.00 0.00 74 1013.4
20260510051517 39 244 0.0 0.0 0.00 0.00 0.00 75 1013.3
20260510050016 39 257 0.0 0.0 0.00 0.00 0.00 75 1013.2
20260510044514 40 259 0.0 3.0 0.00 0.00 0.00 74 1013.1
20260510043011 40 225 1.0 3.0 0.00 0.00 0.00 73 1012.9
20260510041507 41 320 0.0 0.0 0.00 0.00 0.00 70 1013.0
20260510040005 41 326 0.0 4.0 0.00 0.00 0.00 66 1012.7
20260510034619 41 350 0.0 4.0 0.00 0.00 0.00 64 1012.7
20260510033001 40 327 2.0 3.0 0.00 0.00 0.00 66 1013.1
20260510031558 39 275 0.0 0.0 0.00 0.00 0.00 71 1012.7
20260510030106 39 274 0.0 0.0 0.00 0.00 0.00 68 1012.5
20260510024555 40 304 0.0 0.0 0.00 0.00 0.00 65 1012.3
20260510023049 42 304 0.0 0.0 0.00 0.00 0.00 60 1012.4
20260510021557 43 304 0.0 0.0 0.00 0.00 0.00 56 1012.2
20260510020043 44 304 0.0 0.0 0.00 0.00 0.00 56 1012.0
20260510014543 44 304 0.0 0.0 0.00 0.00 0.00 54 1011.6
20260510013023 44 225 0.0 0.0 0.00 0.00 0.00 53 1011.3
20260510011523 45 318 0.0 5.0 0.00 0.00 0.00 53 1011.1
20260510010021 45 280 0.0 3.0 0.00 0.00 0.00 51 1010.9
20260510004519 45 278 0.0 10.0 0.00 0.00 0.00 51 1010.7
20260510003021 45 308 1.0 4.0 0.00 0.00 0.00 51 1010.7
20260510001517 46 306 0.0 12.0 0.00 0.00 0.00 50 1010.6
20260510000018 46 261 1.0 7.0 0.00 0.00 0.00 50 1010.3
20260509234515 46 201 2.0 8.0 0.00 0.00 0.00 49 1010.1
20260509233018 46 310 3.0 11.0 0.00 0.00 0.00 48 1010.0
20260509231512 47 300 4.0 12.0 0.00 0.00 0.00 47 1009.9
20260509230010 47 276 4.0 11.0 0.00 0.00 0.00 48 1009.7
20260509224509 47 301 4.0 9.0 0.00 0.00 0.00 47 1009.6
20260509223007 47 305 5.0 11.0 0.00 0.00 0.00 48 1009.3
20260509221505 47 309 5.0 10.0 0.00 0.00 0.00 49 1009.0
20260509220003 47 306 4.0 9.0 0.00 0.00 0.00 48 1008.8
20260509214605 48 339 4.0 12.0 0.00 0.00 0.00 49 1008.5
20260509213058 48 306 3.0 11.0 0.00 0.00 0.00 49 1008.4